Time,TemperatureF,DewpointF,PressureIn,WindDirection,WindDirectionDegrees,WindSpeedMPH,WindSpeedGustMPH,Humidity,HourlyPrecipIn,Conditions,Clouds,dailyrainin,SoftwareType,DateUTC
2013-02-13 00:08:00,38.1,37.0,29.96,South,186,3.0,4.0,94,0.01,,,0.00,weatherlink.com 1.10,2013-02-13 05:08:00,
2013-02-13 00:23:00,37.9,36.0,29.95,East,93,0.0,5.0,94,0.01,,,0.00,weatherlink.com 1.10,2013-02-13 05:23:00,
2013-02-13 00:38:00,37.9,37.0,29.96,NW,321,0.0,4.0,95,0.01,,,0.00,weatherlink.com 1.10,2013-02-13 05:38:00,
2013-02-13 00:53:00,37.8,37.0,29.93,SSE,150,1.0,4.0,95,0.01,,,0.00,weatherlink.com 1.10,2013-02-13 05:53:00,
2013-02-13 01:08:00,37.7,37.0,29.93,ESE,117,0.0,1.0,96,0.01,,,0.01,weatherlink.com 1.10,2013-02-13 06:08:00,
2013-02-13 01:23:00,37.7,37.0,29.93,SSE,148,0.0,1.0,96,0.01,,,0.01,weatherlink.com 1.10,2013-02-13 06:23:00,
2013-02-13 01:38:00,37.8,36.0,29.93,ESE,118,0.0,1.0,94,0.01,,,0.01,weatherlink.com 1.10,2013-02-13 06:38:00,
2013-02-13 01:53:00,37.6,36.0,29.91,SE,124,0.0,1.0,94,0.01,,,0.01,weatherlink.com 1.10,2013-02-13 06:53:00,
2013-02-13 02:08:00,37.4,36.0,29.91,East,98,0.0,1.0,93,0.00,,,0.01,weatherlink.com 1.10,2013-02-13 07:08:00,
2013-02-13 02:23:00,37.3,36.0,29.91,SE,146,0.0,1.0,93,0.00,,,0.01,weatherlink.com 1.10,2013-02-13 07:23:00,
2013-02-13 02:38:00,37.2,36.0,29.91,ENE,68,0.0,1.0,94,0.01,,,0.02,weatherlink.com 1.10,2013-02-13 07:38:00,
2013-02-13 02:53:00,37.2,36.0,29.90,SE,131,0.0,2.0,95,0.01,,,0.02,weatherlink.com 1.10,2013-02-13 07:53:00,
2013-02-13 03:08:00,37.0,36.0,29.90,ENE,72,1.0,1.0,95,0.01,,,0.02,weatherlink.com 1.10,2013-02-13 08:08:00,
2013-02-13 03:23:00,36.9,36.0,29.90,ENE,78,0.0,1.0,95,0.01,,,0.02,weatherlink.com 1.10,2013-02-13 08:23:00,
2013-02-13 03:38:00,36.9,36.0,29.89,SE,127,2.0,6.0,95,0.00,,,0.02,weatherlink.com 1.10,2013-02-13 08:38:00,
2013-02-13 03:53:00,36.8,35.0,29.88,South,170,1.0,5.0,94,0.00,,,0.02,weatherlink.com 1.10,2013-02-13 08:53:00,
2013-02-13 04:08:00,36.7,35.0,29.87,South,191,2.0,4.0,95,0.00,,,0.02,weatherlink.com 1.10,2013-02-13 09:08:00,
2013-02-13 04:23:00,36.6,35.0,29.87,ESE,120,1.0,5.0,95,0.00,,,0.02,weatherlink.com 1.10,2013-02-13 09:23:00,
2013-02-13 04:38:00,36.6,35.0,29.87,SSE,153,2.0,6.0,95,0.00,,,0.02,weatherlink.com 1.10,2013-02-13 09:38:00,
2013-02-13 04:53:00,36.4,35.0,29.87,SE,139,3.0,5.0,96,0.00,,,0.02,weatherlink.com 1.10,2013-02-13 09:53:00,
2013-02-13 05:08:00,36.3,35.0,29.86,ESE,121,0.0,3.0,96,0.00,,,0.02,weatherlink.com 1.10,2013-02-13 10:08:00,
2013-02-13 05:23:00,36.3,36.0,29.86,East,100,0.0,1.0,97,0.00,,,0.02,weatherlink.com 1.10,2013-02-13 10:23:00,
2013-02-13 05:38:00,36.3,36.0,29.85,ENE,77,0.0,2.0,97,0.00,,,0.02,weatherlink.com 1.10,2013-02-13 10:38:00,
2013-02-13 05:53:00,36.2,36.0,29.84,SE,136,1.0,2.0,97,0.00,,,0.02,weatherlink.com 1.10,2013-02-13 10:53:00,
2013-02-13 06:09:00,36.2,36.0,29.83,ESE,115,0.0,2.0,97,0.00,,,0.02,weatherlink.com 1.10,2013-02-13 11:09:00,
2013-02-13 06:24:00,36.2,36.0,29.83,SE,134,0.0,1.0,97,0.00,,,0.02,weatherlink.com 1.10,2013-02-13 11:24:00,
2013-02-13 06:39:00,36.2,36.0,29.83,SE,134,0.0,1.0,97,0.01,,,0.03,weatherlink.com 1.10,2013-02-13 11:39:00,
2013-02-13 06:54:00,36.3,36.0,29.84,East,98,0.0,0.0,97,0.01,,,0.03,weatherlink.com 1.10,2013-02-13 11:54:00,
2013-02-13 07:09:00,36.3,36.0,29.85,East,99,0.0,0.0,98,0.01,,,0.03,weatherlink.com 1.10,2013-02-13 12:09:00,
2013-02-13 07:24:00,36.4,36.0,29.84,East,99,0.0,0.0,98,0.01,,,0.03,weatherlink.com 1.10,2013-02-13 12:24:00,
2013-02-13 07:39:00,36.4,36.0,29.85,East,99,0.0,0.0,98,0.00,,,0.03,weatherlink.com 1.10,2013-02-13 12:39:00,
2013-02-13 07:54:00,36.5,36.0,29.82,East,99,0.0,1.0,98,0.00,,,0.03,weatherlink.com 1.10,2013-02-13 12:54:00,
2013-02-13 08:09:00,36.7,36.0,29.83,East,84,0.0,2.0,98,0.00,,,0.03,weatherlink.com 1.10,2013-02-13 13:09:00,
2013-02-13 08:24:00,36.8,36.0,29.83,East,84,0.0,1.0,98,0.00,,,0.03,weatherlink.com 1.10,2013-02-13 13:24:00,
2013-02-13 08:39:00,37.1,37.0,29.83,East,93,2.0,2.0,98,0.00,,,0.03,weatherlink.com 1.10,2013-02-13 13:39:00,
2013-02-13 08:54:00,37.3,37.0,29.84,East,79,0.0,2.0,98,0.00,,,0.03,weatherlink.com 1.10,2013-02-13 13:54:00,
2013-02-13 09:09:00,37.4,37.0,29.84,ENE,62,0.0,2.0,98,0.01,,,0.04,weatherlink.com 1.10,2013-02-13 14:09:00,
2013-02-13 09:24:00,37.7,37.0,29.84,West,259,0.0,0.0,98,0.01,,,0.04,weatherlink.com 1.10,2013-02-13 14:24:00,
2013-02-13 09:39:00,38.4,38.0,29.83,ESE,113,0.0,0.0,99,0.01,,,0.04,weatherlink.com 1.10,2013-02-13 14:39:00,
2013-02-13 09:54:00,38.7,38.0,29.84,SW,231,0.0,1.0,98,0.01,,,0.04,weatherlink.com 1.10,2013-02-13 14:54:00,
2013-02-13 10:09:00,39.0,39.0,29.82,West,264,1.0,3.0,98,0.00,,,0.04,weatherlink.com 1.10,2013-02-13 15:09:00,
2013-02-13 10:24:00,39.2,39.0,29.82,SW,224,0.0,1.0,98,0.00,,,0.04,weatherlink.com 1.10,2013-02-13 15:24:00,
2013-02-13 10:39:00,39.7,39.0,29.81,SSW,205,0.0,1.0,98,0.01,,,0.05,weatherlink.com 1.10,2013-02-13 15:39:00,
2013-02-13 10:54:00,39.9,39.0,29.82,SSE,150,0.0,1.0,98,0.01,,,0.05,weatherlink.com 1.10,2013-02-13 15:54:00,
2013-02-13 11:09:00,40.4,40.0,29.81,ENE,65,0.0,1.0,97,0.01,,,0.05,weatherlink.com 1.10,2013-02-13 16:09:00,
2013-02-13 11:24:00,40.9,40.0,29.81,NNW,347,0.0,2.0,97,0.01,,,0.05,weatherlink.com 1.10,2013-02-13 16:24:00,
2013-02-13 11:39:00,41.4,41.0,29.81,NE,45,0.0,3.0,98,0.00,,,0.05,weatherlink.com 1.10,2013-02-13 16:39:00,
2013-02-13 11:54:00,42.5,42.0,29.80,ENE,74,2.0,9.0,96,0.00,,,0.05,weatherlink.com 1.10,2013-02-13 16:54:00,
2013-02-13 12:09:00,43.2,41.0,29.78,East,86,3.0,9.0,92,0.00,,,0.05,weatherlink.com 1.10,2013-02-13 17:09:00,
2013-02-13 12:24:00,43.6,41.0,29.77,East,89,4.0,9.0,91,0.00,,,0.05,weatherlink.com 1.10,2013-02-13 17:24:00,
2013-02-13 12:39:00,43.9,41.0,29.77,ESE,117,3.0,8.0,90,0.00,,,0.05,weatherlink.com 1.10,2013-02-13 17:39:00,
2013-02-13 12:54:00,44.1,41.0,29.76,ENE,69,1.0,8.0,89,0.00,,,0.05,weatherlink.com 1.10,2013-02-13 17:54:00,
2013-02-13 13:09:00,44.5,41.0,29.76,SW,235,4.0,13.0,87,0.00,,,0.05,weatherlink.com 1.10,2013-02-13 18:09:00,
2013-02-13 13:24:00,44.5,41.0,29.75,East,93,3.0,10.0,87,0.00,,,0.05,weatherlink.com 1.10,2013-02-13 18:24:00,
2013-02-13 13:39:00,45.2,41.0,29.75,NNE,12,1.0,9.0,84,0.00,,,0.05,weatherlink.com 1.10,2013-02-13 18:39:00,
2013-02-13 13:54:00,46.4,37.0,29.75,NNW,345,4.0,21.0,71,0.00,,,0.05,weatherlink.com 1.10,2013-02-13 18:54:00,
2013-02-13 14:09:00,46.0,37.0,29.75,NW,325,9.0,24.0,72,0.00,,,0.05,weatherlink.com 1.10,2013-02-13 19:09:00,
2013-02-13 14:24:00,45.7,37.0,29.76,NNE,25,11.0,21.0,72,0.00,,,0.05,weatherlink.com 1.10,2013-02-13 19:24:00,
2013-02-13 14:39:00,45.7,38.0,29.77,NW,311,7.0,9.0,75,0.00,,,0.05,weatherlink.com 1.10,2013-02-13 19:39:00,
2013-02-13 14:54:00,46.3,37.0,29.75,SW,233,7.0,16.0,71,0.00,,,0.05,weatherlink.com 1.10,2013-02-13 19:54:00,
2013-02-13 15:09:00,46.5,36.0,29.75,WNW,285,7.0,15.0,68,0.00,,,0.05,weatherlink.com 1.10,2013-02-13 20:09:00,
2013-02-13 15:24:00,46.7,37.0,29.76,SW,234,2.0,17.0,68,0.00,,,0.05,weatherlink.com 1.10,2013-02-13 20:24:00,
2013-02-13 15:39:00,45.9,37.0,29.76,North,10,2.0,12.0,71,0.00,,,0.05,weatherlink.com 1.10,2013-02-13 20:39:00,
2013-02-13 15:54:00,45.1,37.0,29.77,NNW,348,4.0,13.0,73,0.00,,,0.05,weatherlink.com 1.10,2013-02-13 20:54:00,
2013-02-13 16:09:00,44.3,37.0,29.79,WSW,252,2.0,11.0,76,0.00,,,0.05,weatherlink.com 1.10,2013-02-13 21:09:00,
2013-02-13 16:24:00,44.1,37.0,29.78,SW,221,0.0,12.0,77,0.00,,,0.05,weatherlink.com 1.10,2013-02-13 21:24:00,
2013-02-13 16:40:00,42.8,37.0,29.78,NW,319,4.0,14.0,81,0.00,,,0.05,weatherlink.com 1.10,2013-02-13 21:40:00,
2013-02-13 16:55:00,42.1,38.0,29.79,WNW,301,5.0,14.0,84,0.00,,,0.05,weatherlink.com 1.10,2013-02-13 21:55:00,
2013-02-13 17:10:00,41.6,37.0,29.80,NW,318,1.0,10.0,82,0.00,,,0.05,weatherlink.com 1.10,2013-02-13 22:10:00,
2013-02-13 17:25:00,41.2,36.0,29.81,West,263,0.0,14.0,82,0.00,,,0.05,weatherlink.com 1.10,2013-02-13 22:25:00,
2013-02-13 17:40:00,40.6,35.0,29.82,WNW,300,5.0,18.0,79,0.00,,,0.05,weatherlink.com 1.10,2013-02-13 22:40:00,
2013-02-13 17:55:00,39.7,34.0,29.84,NW,314,5.0,14.0,80,0.00,,,0.05,weatherlink.com 1.10,2013-02-13 22:55:00,
2013-02-13 18:10:00,39.2,33.0,29.85,WNW,302,5.0,18.0,79,0.00,,,0.05,weatherlink.com 1.10,2013-02-13 23:10:00,
2013-02-13 18:25:00,38.6,33.0,29.86,NNW,333,10.0,15.0,80,0.00,,,0.05,weatherlink.com 1.10,2013-02-13 23:25:00,
2013-02-13 18:40:00,38.0,33.0,29.86,NW,304,7.0,21.0,82,0.00,,,0.05,weatherlink.com 1.10,2013-02-13 23:40:00,
2013-02-13 18:55:00,37.5,33.0,29.86,WNW,301,3.0,14.0,82,0.00,,,0.05,weatherlink.com 1.10,2013-02-13 23:55:00,
2013-02-13 19:10:00,37.2,32.0,29.86,NW,325,4.0,25.0,82,0.00,,,0.05,weatherlink.com 1.10,2013-02-14 00:10:00,
2013-02-13 19:25:00,36.9,32.0,29.87,NW,307,9.0,17.0,82,0.00,,,0.05,weatherlink.com 1.10,2013-02-14 00:25:00,
2013-02-13 19:40:00,36.6,31.0,29.87,NW,314,10.0,19.0,80,0.00,,,0.05,weatherlink.com 1.10,2013-02-14 00:40:00,
2013-02-13 19:55:00,36.5,30.0,29.88,WNW,297,11.0,20.0,78,0.00,,,0.05,weatherlink.com 1.10,2013-02-14 00:55:00,
2013-02-13 20:10:00,36.1,30.0,29.89,NE,51,5.0,13.0,79,0.00,,,0.05,weatherlink.com 1.10,2013-02-14 01:10:00,
2013-02-13 20:25:00,35.8,30.0,29.90,East,85,7.0,13.0,79,0.00,,,0.05,weatherlink.com 1.10,2013-02-14 01:25:00,
2013-02-13 20:40:00,35.6,30.0,29.91,NW,304,5.0,14.0,80,0.00,,,0.05,weatherlink.com 1.10,2013-02-14 01:40:00,
2013-02-13 20:55:00,35.4,30.0,29.91,WNW,301,3.0,12.0,80,0.00,,,0.05,weatherlink.com 1.10,2013-02-14 01:55:00,
2013-02-13 21:10:00,35.2,30.0,29.92,NE,45,9.0,12.0,81,0.00,,,0.05,weatherlink.com 1.10,2013-02-14 02:10:00,
2013-02-13 21:25:00,35.1,30.0,29.92,NW,308,3.0,12.0,80,0.00,,,0.05,weatherlink.com 1.10,2013-02-14 02:25:00,
2013-02-13 21:40:00,34.9,29.0,29.93,NW,304,4.0,14.0,80,0.00,,,0.05,weatherlink.com 1.10,2013-02-14 02:40:00,
2013-02-13 21:55:00,34.9,29.0,29.93,West,271,3.0,12.0,78,0.00,,,0.05,weatherlink.com 1.10,2013-02-14 02:55:00,
2013-02-13 22:10:00,34.9,28.0,29.94,NW,304,0.0,10.0,77,0.00,,,0.05,weatherlink.com 1.10,2013-02-14 03:10:00,
2013-02-13 22:25:00,34.9,28.0,29.94,NW,311,3.0,13.0,77,0.00,,,0.05,weatherlink.com 1.10,2013-02-14 03:25:00,
2013-02-13 22:40:00,34.5,28.0,29.95,West,279,1.0,11.0,78,0.00,,,0.05,weatherlink.com 1.10,2013-02-14 03:40:00,
2013-02-13 22:55:00,34.0,28.0,29.95,WNW,301,1.0,12.0,79,0.00,,,0.05,weatherlink.com 1.10,2013-02-14 03:55:00,
2013-02-13 23:10:00,33.5,28.0,29.95,NNE,30,0.0,4.0,81,0.00,,,0.05,weatherlink.com 1.10,2013-02-14 04:10:00,
2013-02-13 23:40:00,32.8,28.0,29.96,West,259,0.0,3.0,82,0.00,,,0.05,weatherlink.com 1.10,2013-02-14 04:40:00,
2013-02-13 23:55:00,31.7,28.0,29.97,SSW,208,2.0,4.0,85,0.00,,,0.05,weatherlink.com 1.10,2013-02-14 04:55:00,